sat.trackr.live / text

‹ back to catalog

STARLINK-3106

NORAD 49164 · 2021-082AL

PAYLOAD ACTIVE UNKNOWN

§ Identity

Operator
Country
US
Launch date
2021-09-14
Launch site
AFWTR
Launch vehicle
Mass (kg)
RCS (m²)

Purposes: comms

External: N2YO · Heavens-Above · Gunter

§ Orbital elements

Epoch: 2026-09-09T00:40:41.545632Z

Period
96.11 min
Inclination
70.0002°
Eccentricity
0.0002824
Mean motion
14.98323492 rev/d
Perigee alt
570.1 km
Apogee alt
574.0 km
Semi-major
6,950.2 km
B*
-1.6956e-4
RAAN
172.1894°
Arg perigee
248.8107°
Mean anomaly
111.2750°
Rev number
27,509

§ Raw data

STARLINK-31061 49164U 21082AL  26252.02825863 -.00002115  00000+0 -16956-3 0  99982 49164  70.0002 172.1894 0002824 248.8107 111.2750 14.98323492275098

JSON: /api/v1/satellites/49164 · /tle

For live sub-satellite position, see the globe view (requires WebGL).

§ Visibility from observer

Set your observer location to see the next 7 days of passes ≥ 10°. The values pass through the URL so the page stays shareable.

No JS? Fill the form by hand. The geolocation button needs JavaScript.